Location: DARK SKY Beskydy - Park tmavé oblohy, www.darkskybeskydy.cz
(49.4926°N, 18.5016°E)
Time: 10:48:44
(UTC+02:00)

BlueWalker 3 - Pass Details

Date: 18 June 2024
Orbit: 480 x 491 km, 53.2° (Epoch: 23 July)

Event Time Altitude Azimuth Distance (km) Brightness Sun altitude
Rises 03:29:46 0° 293° (WNW) 2,538 5.4 -8.6°
Reaches altitude 10° 03:31:56 10° 294° (WNW) 1,657 4.4 -8.4°
Maximum altitude 03:35:40 90° 263° (W) 485 1.8 -8.0°
Drops below altitude 10° 03:39:25 10° 115° (ESE) 1,654 4.8 -7.7°
Sets 03:41:34 0° 115° (ESE) 2,533 5.7 -7.4°
